Regional Weather Roundup
Issued by NWS

Home | Current Version | Previous Version | Text Only | Print | Product List | Glossary Off
Versions: 1 2 3 4 5 6 7 8 9 10 11 12 13 14 15 16 17 18 19 20 21 22 23 24 25 26 27

000
ASUS45 KCYS 151310
RWRWY

WYOMING REGIONAL WEATHER ROUNDUP
NATIONAL WEATHER SERVICE CHEYENNE WY
600 AM MST SUN JAN 15 2017

NOTE:  "FAIR" INDICATES FEW OR NO CLOUDS BELOW 12,000 FEET
WITH NO SIGNIFICANT WEATHER AND/OR OBSTRUCTIONS TO VISIBILITY.

WYZ001-151400-
YELLOWSTONE NATIONAL PARK

CITY           SKY/WX    TMP DP  RH WIND       PRES   REMARKS
LK YELLOWSTONE   N/A    -23 -27  82 CALM      30.20S
W YELLOWSTONE  NOT AVBL

$$
WYZ002>013-054>058-071-098>099-151400-
NORTHERN WYOMING

CITY           SKY/WX    TMP DP  RH WIND       PRES   REMARKS
JACKSON        FAIR     -18 -20  91 NE7       30.25F WCI -35
CODY           FAIR       8   0  69 S3        30.11
GREYBULL       FAIR     -21 -25  81 NW7       30.21F WCI -38
WORLAND        FAIR     -13 -16  86 CALM      30.17F
SHERIDAN       FAIR      -1  -9  68 VRB7      30.10S WCI -14
BUFFALO        FAIR      26  -5  25 W8        30.08F WCI  18
GILLETTE       FAIR      13   4  67 N5        30.10F WCI   5
HULETT         FAIR      16   1  53 MISG      30.12F
NEWCASTLE      FAIR      14   7  73 CALM      30.14F

$$
WYZ014>020-022>026-101>103-151400-
CENTRAL WYOMING

CITY           SKY/WX    TMP DP  RH WIND       PRES   REMARKS
BIG PINEY      ICE FOG  -16 -19  87 N3        30.14F VSB 1/2
PINEDALE       FAIR     -15 -20  76 NW6       30.15F WCI -29
DUBOIS         NOT AVBL
LANDER         FAIR       4   1  88 S3        30.15F
RIVERTON       FAIR     -10 -13  86 W6        30.16S WCI -23
CASPER         FAIR      19  14  81 SW13      30.12F WCI   6
DOUGLAS        FAIR      11   7  84 CALM      30.14S

$$
WYZ021-027>030-104>119-151400-
SOUTHERN WYOMING

CITY           SKY/WX    TMP DP  RH WIND       PRES   REMARKS
EVANSTON       FAIR       6   1  80 E8        30.12F WCI  -7
ROCK SPRINGS   FOG        9   5  84 N3        30.17S VSB 1/4
RAWLINS        FOG       19  16  88 CALM      30.13F VSB 1/4
LARAMIE        MOCLDY    13   8  81 SW3       30.10F HAZE
CHEYENNE       MOCLDY    23  18  81 NW6       30.10F WCI  16
TORRINGTON     FAIR      19  17  92 NW5       30.15R WCI  12

$$




USA.gov is the U.S. government's official web portal to all federal, state and local government web resources and services.